Weather History for Omaha Offutt, NE

Change the Weather History Date:

Friday, August 9, 2013

  Actual Average Record
Temperature  
Mean Temperature 70 °F -  
Max Temperature 83 °F 81 °F 95 °F (2005)
Min Temperature 58 °F 63 °F 58 °F (2013)
Cooling Degree Days 5    
Growing Degree Days 20 (Base 50)    
Moisture  
Dew Point 63 °F    
Average Humidity 80    
Maximum Humidity 100    
Minimum Humidity 50    
Precipitation  
Precipitation 0.00 in - - ()
Sea Level Pressure  
Sea Level Pressure 30.07 in    
Wind  
Wind Speed 3 mph (North)    
Max Wind Speed 9 mph    
Max Gust Speed -    
Visibility 9 miles    
Events Rain    
Averages and records for this station are not official NWS values.
T = Trace of Precipitation, MM = Missing Value Source: NWS Daily Summary

Daily Weather History Graph

Daily Weather History Graph

Search for Another Location

Airport:

Trip Planner

Search our weather history database for the weather conditions in past years. The results will help you decide how hot, cold, wet, or windy it might be!

Date:

Astronomy

Aug. 09, 2013 Rise Set
Actual Time 6:27 AM CDT 8:30 PM CDT
Civil Twilight 5:57 AM CDT 9:00 PM CDT
Nautical Twilight 5:20 AM CDT 9:36 PM CDT
Astronomical Twilight 4:40 AM CDT 10:16 PM CDT
Moon 9:16 AM CDT (8/9) 9:37 PM CDT (8/9)
Length of Visible Light 15h 02m
Length of Day
14h 02m
Waxing Crescent, 8% of the Moon is Illuminated
Aug 9
Waxing Crescent
Aug 14
First Quarter
Aug 20
Full
Aug 28
Last Quarter
Sep 5
New

Hourly Weather History & Observations

Time (CDT) Temp. Heat Index Dew Point Humidity Pressure Visibility Wind Dir Wind Speed Gust Speed Precip Events Conditions
12:58 AM 69.4 °F - 65.5 °F 87% 30.04 in 10.0 mi South 2.3 mph - N/A   Mostly Cloudy
2:58 AM 62.6 °F - 62.6 °F 100% 30.03 in 6.0 mi Calm Calm - N/A   Partly Cloudy
3:59 AM 60.8 °F - 60.8 °F 100% 30.04 in 6.0 mi Calm Calm - N/A   Clear
4:55 AM 60.6 °F - 60.1 °F 98% 30.01 in 6.0 mi Calm Calm - N/A   Clear
4:58 AM 60.6 °F - 60.1 °F 98% 30.01 in 6.0 mi Calm Calm - N/A   Clear
5:01 AM 60.8 °F - 60.8 °F 100% 30.01 in 6.0 mi Calm Calm - N/A   Clear
5:58 AM 59.5 °F - 59.5 °F 100% 30.03 in 7.0 mi Calm Calm - N/A   Mostly Cloudy
6:58 AM 58.3 °F - 58.3 °F 100% 30.04 in 5.0 mi Calm Calm - N/A   Mostly Cloudy
7:58 AM 64.4 °F - 64.4 °F 100% 30.06 in 10.0 mi West 3.5 mph - N/A   Clear
8:58 AM 68.9 °F - 68.9 °F 100% 30.06 in 10.0 mi Variable 3.5 mph - N/A   Clear
9:19 AM 73.4 °F - 69.8 °F 88% 30.06 in 10.0 mi West 4.6 mph - N/A   Light Drizzle
9:38 AM 77.0 °F - 68.0 °F 74% 30.07 in 10.0 mi West 4.6 mph - N/A   Clear
9:49 AM 77.0 °F - 69.8 °F 78% 30.06 in 10.0 mi Variable 5.8 mph - N/A Rain Light Rain
9:58 AM 77.0 °F - 68.0 °F 74% 30.06 in 10.0 mi NNE 3.5 mph - N/A   Partly Cloudy
10:58 AM 78.8 °F - 68.0 °F 69% 30.07 in 10.0 mi North 8.1 mph - N/A   Partly Cloudy
11:58 AM 79.9 °F - 66.9 °F 64% 30.07 in 10.0 mi NNE 8.1 mph - N/A   Partly Cloudy
12:58 PM 80.2 °F 82.2 °F 65.8 °F 61% 30.07 in 10.0 mi North 8.1 mph - N/A   Partly Cloudy
1:58 PM 82.2 °F 83.8 °F 64.8 °F 55% 30.07 in 10.0 mi NNE 9.2 mph - N/A   Partly Cloudy
2:58 PM 81.1 °F 82.8 °F 64.8 °F 57% 30.08 in 10.0 mi North 6.9 mph - N/A   Partly Cloudy
3:58 PM 80.2 °F 81.4 °F 62.2 °F 54% 30.09 in 10.0 mi NNE 8.1 mph - N/A   Clear
4:58 PM 80.2 °F 81.6 °F 63.3 °F 56% 30.09 in 10.0 mi NE 6.9 mph - N/A   Clear
5:58 PM 79.2 °F - 60.4 °F 53% 30.09 in 10.0 mi NNE 8.1 mph - N/A   Clear
6:58 PM 79.0 °F - 58.6 °F 50% 30.08 in 10.0 mi NNE 6.9 mph - N/A   Clear
7:58 PM 75.0 °F - 60.3 °F 60% 30.09 in 10.0 mi NE 4.6 mph - N/A   Clear
8:58 PM 66.2 °F - 59.0 °F 78% 30.11 in 10.0 mi NE 3.5 mph - N/A   Clear
9:58 PM 60.8 °F - 59.0 °F 94% 30.13 in 10.0 mi NE 2.3 mph - N/A   Clear
10:58 PM 58.5 °F - 58.3 °F 99% 30.14 in 10.0 mi Calm Calm - N/A   Clear
11:58 PM 58.3 °F - 57.9 °F 99% 30.15 in 10.0 mi WNW 3.5 mph - N/A   Clear